Regional Weather Roundup
Issued by NWS Spokane, WA

Home | Current Version | Previous Version | Text Only | Print | Product List | Glossary On
Versions: 1 2 3 4 5 6 7 8 9 10 11 12 13 14 15 16 17 18 19 20 21 22 23 24 25 26 27 28 29 30 31 32 33 34 35 36 37 38 39 40 41 42 43 44 45 46 47 48 49 50
523
NZUS01 KOTX 200200
RWROTX

Eastern Washington/Northern Idaho Roundup
National Weather Service, Spokane WA
700 PM PDT THU APR 19 2018

Note: "fair" indicated few or no clouds below 12,000 feet with no
significant weather and/or obstructions to visibility.

...Northeast Washington and Northern Idaho Panhandle...

CITY           SKY/WX    TMP DP  RH WIND       PRES   REMARKS
Spokane Intl   PTCLDY    59  28  30 W15       30.10S
Spokane Downto CLEAR     61  24  24 SW10      30.09S
Coeur d Alene  CLEAR     58  30  34 W10       30.09S
Deer Park      CLEAR     58  27  30 SW10      30.09S
Sandpoint      PTCLDY    55  32  41 N3        30.07S

...Southeast Washington and southern Idaho Panhandle...

CITY           SKY/WX    TMP DP  RH WIND       PRES   REMARKS
Walla Walla    CLEAR     63  37  38 NW6       30.13S
Pullman/Moscow CLEAR     56  30  37 W8        30.13S
Lowell           N/A     55  43  63 CALM      30.05R
Grangeville    FAIR      52  34  50 NW5       30.10R

...Columbia Basin...

CITY           SKY/WX    TMP DP  RH WIND       PRES   REMARKS
Ephrata        PTCLDY    61  33  35 SW8       30.10F
Moses Lake     PTCLDY    64  28  25 SW6       30.11F
Pasco          CLEAR     67  34  29 CALM      30.13F
Hermiston      CLEAR     65  35  33 W6        30.13S
Pendleton      CLEAR     61  27  27 N6        30.14S

...East Slopes Cascades...

CITY           SKY/WX    TMP DP  RH WIND       PRES   REMARKS
The Dalles     CLEAR     66  36  32 NW13      30.15R
Yakima         PTCLDY    67  29  24 W12       30.12S
Ellensburg     CLOUDY    59  34  39 NW20      30.14S
Wenatchee      MOCLDY    61  28  28 NW15      30.11R
Omak           CLOUDY    64  33  31 S8        30.09F
Sunnyside      CLEAR     64  32  30 S7        30.12S

...Southern British Columbia...

CITY           SKY/WX    TMP DP  RH WIND       PRES   REMARKS

...Western Montana...

CITY           SKY/WX    TMP DP  RH WIND       PRES   REMARKS
Kalispell      CLEAR     57  29  34 S7        30.05R
Missoula       CLEAR     56  24  29 N14       30.04R

...Neighboring Cities...

CITY           SKY/WX    TMP DP  RH WIND       PRES   REMARKS
Seattle        MOCLDY    59  36  42 W6        30.23F
Portland       PTCLDY    65  30  27 N8        30.21S
Boise          PTCLDY    64  29  26 NW20G30   29.89R
Great Falls    CLEAR     54  30  40 NE10      30.04S



USA.gov is the U.S. government's official web portal to all federal, state and local government web resources and services.